Miscellaneous Local Product
Issued by NWS Hastings, NE

Home | Current Version | Previous Version | Graphics & Text | Print | Product List | Glossary On
Versions: 1 2 3 4 5 6 7 8 9 10 11 12 13 14 15 16 17 18 19 20 21 22 23 24 25 26 27 28 29 30 31 32 33 34 35 36 37 38 39 40 41 42 43 44 45 46 47 48 49 50
000
AXUS43 KGID 050202
MISGRI

GID CWA HOURLY WEATHER ROUNDUP
NATIONAL WEATHER SERVICE HASTINGS NE
900 PM CDT MON MAY 04 2015

NOTE: "FAIR" INDICATES FEW OR NO CLOUDS BELOW 12,000 FEET WITH NO
SIGNIFICANT WEATHER AND/OR OBSTRUCTIONS TO VISIBILITY.

...SOUTH CENTRAL NEBRASKA...

CITY           SKY/WX    TMP DP  RH WIND       PRES   REMARKS
GRAND ISLAND   CLOUDY    54  53  97 NE12      30.06S
HASTINGS       CLOUDY    56  53  90 NE13      30.05S
KEARNEY        CLOUDY    54  50  87 NE13      30.07S
ORD            CLOUDY    55  48  77 E7        30.09R
YORK           CLOUDY    55  55 100 E14       30.05S FOG
AURORA         CLOUDY    55  55  97 NE13      30.05F
LEXINGTON      CLOUDY    53  50  90 NE15      30.07S
HOLDREGE       CLOUDY    54  51  90 NE13      30.06S
HEBRON         CLOUDY    60  57  89 E13       30.02S FOG

...NEBRASKA PANHANDLE...

CITY           SKY/WX    TMP DP  RH WIND       PRES   REMARKS
CHADRON        CLOUDY    49  44  83 NE7       30.10R
ALLIANCE       CLOUDY    53  34  48 SE9       30.09R
SCOTTSBLUFF    PTCLDY    54  35  48 SE16      30.09R
SIDNEY         CLOUDY    48  40  73 SE10      30.13R

...WESTERN AND NORTH CENTRAL NEBRASKA...

CITY           SKY/WX    TMP DP  RH WIND       PRES   REMARKS
VALENTINE      CLOUDY    58  32  37 SE7       30.10R
AINSWORTH      CLOUDY    59  33  37 SE8       30.10S
ONEILL         CLOUDY    59  47  63 CALM      30.10S
BROKEN BOW     CLOUDY    54  49  83 NE6       30.09R
IMPERIAL       CLOUDY    49  45  86 E8        30.10R
NORTH PLATTE   CLOUDY    51  46  83 NE6       30.09S
MCCOOK         CLOUDY    54  49  83 NE10      30.07S

...EASTERN NEBRASKA...

CITY           SKY/WX    TMP DP  RH WIND       PRES   REMARKS
NORFOLK        CLOUDY    56  51  84 E8        30.09S
SO SIOUX CITY  CLOUDY    57  49  74 E5        30.10S
TEKAMAH        CLOUDY    58  55  90 NE7       30.07F
COLUMBUS       CLOUDY    55  48  76 NE8       30.08R
ALBION         CLOUDY    55  49  82 E7        30.10R
OMAHA EPPLEY   CLOUDY    60  57  89 N5        30.06S
OFFUTT AFB     CLOUDY    61  58  89 NE10      30.04S
MILLARD        CLOUDY    60  57  91 NE5       30.05S FOG
LINCOLN        CLOUDY    59  56  89 NE10      30.04F
NEBRASKA CITY  CLOUDY    62  62 100 E9        30.03S
BEATRICE       LGT RAIN  62  60  96 E7        30.02S
FALLS CITY     RAIN      65  63  93 E9        30.03R FOG

...NORTHERN KANSAS...

CITY           SKY/WX    TMP DP  RH WIND       PRES   REMARKS
GOODLAND       CLOUDY    53  45  74 NE15      30.07R
HILL CITY      CLOUDY    61  52  72 NE15      30.07R
NORTON         CLOUDY    55  46  71 NE10      30.07R
PHILLIPSBURG   CLOUDY    61  54  77 NE9       30.08R
SMITH CENTER   CLOUDY    59  54  82 NE8       30.06R
HAYS           CLOUDY    61  54  77 E13       30.06R
RUSSELL        LGT RAIN  64  59  83 S10       30.05R
CONCORDIA      CLOUDY    63  59  87 NE12      30.02R
SALINA         TSTM      65  61  87 S14       30.00R FOG
TOPEKA         LGT RAIN  64  60  87 N13       30.07R



USA.gov is the U.S. government's official web portal to all federal, state and local government web resources and services.